Вернуться в каталог

STARLINK-37343

АктивенСвязьVLEO
NORAD 69159·PAYLOAD·🇺🇸 United States

Запущен May 21, 2026 с Cape Canaveral Space Force Station

Loading…

Ближайшие Пролёты (ближайшие 24 часа)

TLE

СвежийSource: CelesTrak SupGP

Эпоха: Sep 15, 2026, 03:35 UTC

1 69159C 26111M   26258.14979167 -.00018596  00000+0 -54952-3 0  2584
2 69159  53.1578  90.8485 0001242  85.9718   1.6403 15.34393496    14

Отслеживайте STARLINK-37343 в реальном времени с AllMySat

Download on the App Store